Retour au catalogue

STARLINK-30861

ActifCommunicationsVLEO
NORAD 58230·PAYLOAD·🇺🇸 United States

Lancé Nov 8, 2023 depuis Cape Canaveral Space Force Station

Loading…

Prochains Passages (prochaines 24 heures)

TLE

FraisSource: CelesTrak SupGP

Époque: Sep 15, 2026, 03:06 UTC

1 58230C 23171A   26258.12965278  .00054602  00000+0  13471-2 0  2587
2 58230  42.9886 290.3090 0014365  54.6978 317.1987 15.39549749    11

Suivez STARLINK-30861 en temps réel avec AllMySat

Download on the App Store